This is the latest recevied weather packets stored in our database for station/object DF7ER-12. If no packets are shown the sender has not sent any weather packets the latest 10 day(s).
| Time | Temp. | Humidity | Pressure | Rain* | Wind** | Luminosity | Snow |
|---|---|---|---|---|---|---|---|
| 1787842278 | 30° C | 59% | 1003.6 hPa | - | - | - | - |
| 1787841978 | 29.44° C | 59% | 1003.6 hPa | - | - | - | - |
| 1787841678 | 29.44° C | 58% | 1003.6 hPa | - | - | - | - |
| 1787841378 | 29.44° C | 58% | 1003.5 hPa | - | - | - | - |
| 1787841078 | 30° C | 59% | 1003.5 hPa | - | - | - | - |
| 1787840778 | 29.44° C | 59% | 1003.7 hPa | - | - | - | - |
| 1787840478 | 29.44° C | 60% | 1003.6 hPa | - | - | - | - |
| 1787840178 | 30° C | 59% | 1003.8 hPa | - | - | - | - |
| 1787839878 | 29.44° C | 59% | 1003.9 hPa | - | - | - | - |
| 1787839578 | 28.89° C | 60% | 1003.9 hPa | - | - | - | - |
| 1787839278 | 29.44° C | 60% | 1003.9 hPa | - | - | - | - |
| 1787838978 | 29.44° C | 59% | 1004 hPa | - | - | - | - |
| 1787838678 | 29.44° C | 60% | 1004 hPa | - | - | - | - |
| 1787838378 | 30° C | 59% | 1004 hPa | - | - | - | - |
| 1787838078 | 28.89° C | 60% | 1003.9 hPa | - | - | - | - |
| 1787837778 | 29.44° C | 60% | 1003.8 hPa | - | - | - | - |
| 1787837478 | 29.44° C | 60% | 1003.9 hPa | - | - | - | - |
| 1787837178 | 29.44° C | 61% | 1004 hPa | - | - | - | - |
| 1787836878 | 28.89° C | 61% | 1004.1 hPa | - | - | - | - |
| 1787836578 | 29.44° C | 61% | 1004.3 hPa | - | - | - | - |
| 1787836278 | 28.89° C | 61% | 1004.3 hPa | - | - | - | - |
| 1787835978 | 29.44° C | 60% | 1004.2 hPa | - | - | - | - |
| 1787835678 | 29.44° C | 61% | 1004.4 hPa | - | - | - | - |
| 1787835378 | 28.89° C | 62% | 1004.3 hPa | - | - | - | - |
| 1787835078 | 28.89° C | 61% | 1004.3 hPa | - | - | - | - |
* Rain since midnight (hover to see other rain measurements)
** Current wind speed in m/s (hover to see current wind gust speed)